Location: Christchurch
(43.5330°S, 172.6330°E)
Time: 15:52:11
(UTC+12:00)

Cosmos 2322 - Visible Passes

Search period start: 26 May 2019 00:00
Search period end: 05 June 2019 00:00
Orbit: 842 x 853 km, 71.0° (Epoch: 24 May)

Date Brightness Start Highest point End Pass type
(mag) Time Alt. Az. Time Alt. Az. Time Alt. Az.
26 May 5.3 05:57:39 10° S 06:02:51 33° SE 06:08:00 10° ENE visible
27 May 5.3 05:44:23 10° S 05:49:35 33° SE 05:54:43 10° ENE visible
28 May 5.3 05:31:09 10° S 05:36:18 32° SE 05:41:24 10° ENE visible
28 May 4.2 07:15:11 10° SW 07:20:36 43° WNW 07:25:58 10° N visible
29 May 5.3 05:18:37 13° S 05:23:02 32° SE 05:28:07 10° ENE visible
29 May 4.2 07:01:54 10° SW 07:07:21 44° WNW 07:12:44 10° N visible
30 May 5.3 05:06:11 17° S 05:09:45 31° SE 05:14:49 10° ENE visible
30 May 4.1 06:48:38 10° SW 06:54:05 44° WNW 06:59:30 10° N visible
31 May 5.3 04:53:49 21° S 04:56:28 31° SE 05:01:31 10° ENE visible
31 May 4.1 06:35:48 12° SW 06:40:50 45° WNW 06:46:15 10° N visible
31 May 5.7 19:44:39 10° N 19:45:48 16° N 19:45:48 16° N visible
01 Jun 5.3 04:41:34 26° SSE 04:43:12 30° SE 04:48:12 10° ENE visible
01 Jun 4.0 06:23:33 18° SW 06:27:35 46° WNW 06:33:00 10° N visible
01 Jun 5.1 19:31:25 10° N 19:33:55 25° NNE 19:33:55 25° NNE visible
02 Jun 5.3 04:29:23 29° SE 04:29:56 30° SE 04:34:55 10° ENE visible
02 Jun 4.0 06:11:22 26° SW 06:14:19 47° WNW 06:19:46 10° N visible
02 Jun 4.5 19:18:10 10° N 19:22:00 36° NE 19:22:00 36° NE visible
02 Jun 6.2 21:02:51 10° WNW 21:04:01 15° WNW 21:04:01 15° WNW visible
03 Jun 5.4 04:17:17 29° ESE 04:17:17 29° ESE 04:21:36 10° ENE visible
03 Jun 3.9 05:59:17 36° WSW 06:01:03 48° WNW 06:06:31 10° N visible
03 Jun 4.1 19:04:56 10° N 19:10:02 43° ENE 19:10:02 43° ENE visible
03 Jun 5.8 20:49:33 10° WNW 20:52:02 22° W 20:52:02 22° W visible
04 Jun 5.7 04:05:16 24° E 04:05:16 24° E 04:08:18 10° ENE visible
04 Jun 3.9 05:47:16 47° W 05:47:47 49° WNW 05:53:16 10° N visible
04 Jun 4.1 18:51:41 10° N 18:57:03 43° ENE 18:57:59 40° E visible
04 Jun 5.5 20:36:15 10° WNW 20:39:59 29° W 20:39:59 29° W visible
